EW8041 Weather Reports


time (UTC)temp
C
wind
direction
speed
KPH
gust
KPH
rain 1hr
cm
rain 24hr
cm
rain mn
cm
humidity
%
barometer
mb
20260506050531 21 154 3.2 9.7 0.00 0.00 0.00 71 1010.8
20260506044523 21 176 3.2 9.7 0.00 0.00 0.00 71 1010.6
20260506043519 21 188 3.2 9.7 0.00 0.00 0.00 71 1010.7
20260506042534 21 174 3.2 6.4 0.00 0.00 0.00 71 1010.7
20260506041551 21 183 3.2 6.4 0.00 0.00 0.00 71 1010.7
20260506040527 21 180 3.2 6.4 0.00 0.00 0.00 70 1010.7
20260506035522 21 167 3.2 6.4 0.00 0.00 0.00 70 1010.8
20260506034518 21 188 3.2 11.3 0.00 0.00 0.00 70 1010.7
20260506033534 21 162 3.2 9.7 0.00 0.00 0.00 70 1010.5
20260506032530 21 166 3.2 12.9 0.00 0.00 0.00 70 1010.8
20260506031526 21 160 3.2 9.7 0.00 0.00 0.00 70 1010.8
20260506030522 21 210 3.2 6.4 0.00 0.00 0.00 70 1010.8
20260506025537 21 195 4.8 9.7 0.00 0.00 0.00 70 1010.8
20260506024533 21 175 3.2 9.7 0.00 0.00 0.00 70 1010.6
20260506023529 21 182 3.2 6.4 0.00 0.00 0.00 70 1010.7
20260506022524 21 170 3.2 9.7 0.00 0.00 0.00 69 1010.6
20260506021520 21 180 3.2 9.7 0.00 0.00 0.00 69 1010.1
20260506020516 21 144 3.2 6.4 0.00 0.00 0.00 68 1009.9
20260506015532 21 173 3.2 6.4 0.00 0.00 0.00 69 1010.3
20260506014527 21 197 3.2 9.7 0.00 0.00 0.00 68 1010.7
20260506013543 21 154 3.2 12.9 0.00 0.00 0.00 68 1010.6
20260506012519 21 164 4.8 9.7 0.00 0.00 0.00 68 1010.4
20260506011555 21 174 3.2 9.7 0.00 0.00 0.00 67 1010.2
20260506010530 22 176 4.8 9.7 0.00 0.00 0.00 67 1010.4
20260506005526 22 198 4.8 12.9 0.00 0.00 0.00 66 1010.3
20260506004522 22 184 3.2 11.3 0.00 0.00 0.00 66 1010.3
20260506003518 22 163 3.2 11.3 0.00 0.00 0.00 66 1010.2
20260506002554 22 172 4.8 11.3 0.00 0.00 0.00 66 1010.2
20260506001529 22 162 3.2 9.7 0.00 0.00 0.00 65 1010.1
20260506000524 22 174 3.2 11.3 0.00 0.00 0.00 64 1010.2
20260505235520 22 189 4.8 12.9 0.00 0.00 0.00 64 1010.3
20260505234516 22 188 3.2 9.7 0.00 0.00 0.00 64 1010.4
20260505233531 22 141 3.2 11.3 0.00 0.00 0.00 63 1010.6
20260505232546 22 197 6.4 16.1 0.00 0.00 0.00 63 1010.8
20260505231521 22 166 4.8 12.9 0.00 0.00 0.00 63 1011.0
20260505230537 23 182 4.8 14.5 0.00 0.00 0.00 63 1011.0
20260505225533 22 187 3.2 4.8 0.00 0.00 0.00 63 1010.9
20260505224529 22 170 4.8 14.5 0.00 0.00 0.00 62 1011.1
20260505223524 22 202 4.8 11.3 0.00 0.00 0.00 62 1011.4
20260505222520 22 164 6.4 12.9 0.00 0.00 0.00 61 1011.4
20260505221516 23 174 4.8 9.7 0.00 0.00 0.00 61 1011.2
20260505220532 23 180 4.8 16.1 0.00 0.00 0.00 60 1011.4
20260505215528 23 168 8.0 14.5 0.00 0.00 0.00 60 1011.3
20260505214543 23 175 6.4 20.9 0.00 0.00 0.00 60 1011.2
20260505213519 23 224 3.2 6.4 0.00 0.00 0.00 60 1011.3
20260505212535 23 187 3.2 9.7 0.00 0.00 0.00 60 1011.2
20260505211531 23 139 6.4 17.7 0.00 0.00 0.00 60 1011.3
20260505210527 23 198 6.4 17.7 0.00 0.00 0.00 60 1011.2
20260505205523 23 161 6.4 14.5 0.00 0.00 0.00 60 1010.9
20260505204519 23 165 4.8 12.9 0.00 0.00 0.00 60 1011.0
20260505203535 23 168 3.2 6.4 0.00 0.00 0.00 59 1011.0
20260505202551 23 147 3.2 11.3 0.00 0.00 0.00 59 1011.1
20260505201527 23 116 3.2 9.7 0.00 0.00 0.00 58 1011.2
20260505200523 23 98 1.6 11.3 0.00 0.00 0.00 58 1011.5
20260505195519 23 155 3.2 9.7 0.00 0.00 0.00 57 1011.4
20260505194715 23 191 4.8 12.9 0.00 0.00 0.00 57 1011.2
20260505193551 23 170 3.2 11.3 0.00 0.00 0.00 55 1011.6
20260505192607 24 147 3.2 9.7 0.00 0.00 0.00 53 1011.9
20260505191522 25 201 3.2 12.9 0.00 0.00 0.00 54 1012.6
20260505190518 25 173 4.8 12.9 0.00 0.00 0.00 53 1013.1
20260505185534 25 177 4.8 20.9 0.00 0.00 0.00 53 1013.1
20260505184530 26 156 6.4 14.5 0.00 0.00 0.00 54 1013.1
20260505183526 26 187 4.8 14.5 0.00 0.00 0.00 54 1013.2
20260505182521 26 169 4.8 16.1 0.00 0.00 0.00 55 1013.2
20260505181517 26 199 4.8 14.5 0.00 0.00 0.00 55 1013.2
20260505180533 26 170 8.0 17.7 0.00 0.00 0.00 55 1013.2
20260505175529 25 170 6.4 16.1 0.00 0.00 0.00 55 1013.1
20260505174525 25 160 4.8 11.3 0.00 0.00 0.00 57 1013.3
20260505173521 25 127 3.2 11.3 0.00 0.00 0.00 55 1013.5
20260505172517 25 174 8.0 17.7 0.00 0.00 0.00 55 1013.6
20260505171533 25 121 6.4 14.5 0.00 0.00 0.00 57 1013.8
20260505170529 25 184 4.8 11.3 0.00 0.00 0.00 57 1013.9
20260505165605 25 168 4.8 17.7 0.00 0.00 0.00 58 1014.0
20260505164521 25 216 6.4 22.5 0.00 0.00 0.00 59 1013.8
20260505163537 25 174 6.4 17.7 0.00 0.00 0.00 60 1014.0
20260505162553 25 186 8.0 16.1 0.00 0.00 0.00 60 1013.9
20260505161529 25 183 6.4 17.7 0.00 0.00 0.00 61 1013.9
20260505160524 25 168 6.4 14.5 0.00 0.00 0.00 65 1013.8
20260505152529 23 180 3.2 9.7 0.00 0.00 0.00 67 1013.9
20260505151524 23 173 3.2 9.7 0.00 0.00 0.00 69 1013.9
20260505150539 23 175 4.8 11.3 0.00 0.00 0.00 72 1014.1
20260505140535 20 182 1.6 6.4 0.00 0.00 0.00 77 1014.1
20260505124522 15 144 1.6 4.8 0.00 0.00 0.00 84 1013.9
20260505123518 14 153 1.6 4.8 0.00 0.00 0.00 84 1013.8
20260505122534 13 89 1.6 3.2 0.00 0.00 0.00 83 1013.8
20260505121529 13 151 1.6 3.2 0.00 0.00 0.00 83 1013.8
20260505120525 12 181 0.0 1.6 0.00 0.00 0.00 82 1014.0
20260505115521 12 180 0.0 1.6 0.00 0.00 0.00 82 1013.5
20260505114517 12 181 0.0 1.6 0.00 0.00 0.00 81 1013.3
20260505113533 12 180 0.0 1.6 0.00 0.00 0.00 80 1012.9
20260505112529 12 180 0.0 1.6 0.00 0.00 0.00 80 1012.9
20260505111525 12 179 0.0 1.6 0.00 0.00 0.00 79 1012.9
20260505110521 12 0.0 0.0 0.00 0.00 0.00 78 1012.7
20260505101520 13 179 0.0 1.6 0.00 0.00 0.00 77 1012.0
20260505100516 13 179 0.0 1.6 0.00 0.00 0.00 77 1012.1
20260505095532 13 179 0.0 1.6 0.00 0.00 0.00 77 1012.0
20260505094528 13 179 0.0 1.6 0.00 0.00 0.00 76 1011.9
20260505093524 13 179 0.0 1.6 0.00 0.00 0.00 76 1011.8
20260505092520 13 178 0.0 6.4 0.00 0.00 0.00 76 1011.9
20260505091516 13 186 0.0 3.2 0.00 0.00 0.00 76 1012.0
20260505090531 13 183 0.0 3.2 0.00 0.00 0.00 76 1011.9
20260505085527 13 174 0.0 1.6 0.00 0.00 0.00 76 1011.9
20260505084523 13 173 0.0 3.2 0.00 0.00 0.00 76 1012.1
20260505083519 13 194 0.0 4.8 0.00 0.00 0.00 76 1011.9
20260505082555 12 175 1.6 3.2 0.00 0.00 0.00 76 1012.0
20260505081531 12 140 0.0 1.6 0.00 0.00 0.00 76 1012.1
20260505080527 12 137 0.0 1.6 0.00 0.00 0.00 75 1012.3
20260505075524 12 137 0.0 1.6 0.00 0.00 0.00 75 1012.5
20260505074519 12 137 0.0 3.2 0.00 0.00 0.00 75 1012.5
20260505073535 12 0.0 0.0 0.00 0.00 0.00 74 1012.7
20260505072551 12 0.0 0.0 0.00 0.00 0.00 74 1012.6
20260505071527 13 137 0.0 1.6 0.00 0.00 0.00 74 1012.5
20260505070523 13 0.0 0.0 0.00 0.00 0.00 73 1012.5
20260505065519 13 0.0 0.0 0.00 0.00 0.00 73 1012.6
20260505064535 13 0.0 0.0 0.00 0.00 0.00 72 1012.6
20260505063531 13 0.0 0.0 0.00 0.00 0.00 72 1012.7
20260505062546 13 137 0.0 1.6 0.00 0.00 0.00 72 1012.7
20260505061522 13 0.0 0.0 0.00 0.00 0.00 71 1012.8
20260505060518 14 0.0 0.0 0.00 0.00 0.00 71 1012.8